User: anonymous   Login
Location: Tafessasset
(32.5899°N, 5.4824°W)
Time: 09:09:51
(UTC+00:00)
Language:

STARLINK-1119 - Orbit

View from above orbital plane
View from above orbital plane
View from above satellite
View from above satellite

Ground track
Ground track

The orbit data is extracted from the following two-line orbital elements,

1 44928C 20001Q   20158.13173413  .00005361  00000-0  36718-3 0  1589
2 44928  52.9999  65.3676 0001589  90.7723  26.6330 15.05574127    14
Epoch (UTC): 06 June 2020 03:09:41
Eccentricity: 0.0001589
inclination: 52.9999°
perigee height: 548 km
apogee height: 551 km
right ascension of ascending node: 65.3676°
argument of perigee: 90.7723°
revolutions per day: 15.05574127
mean anomaly at epoch: 26.6330°
orbit number at epoch: 1

The dashed part of the orbit path shows where the satellite is in the earth's shadow,  

DLR